Location: La Beauge
(44.0184°N, 6.6838°E)
Time: 00:30:06
(UTC+00:00)

Daily predictions for brighter satellites

Satellite Brightness Start Highest point End
(mag) Time Altitude Azimuth Time Altitude Azimuth Time Altitude Azimuth
CENTAUR R/B 3.4 03:44:24 40° NNE 03:44:24 40° NNE 03:49:06 10° NNE
Cosmos 1486 Rocket 4.3 04:03:40 66° E 04:03:40 66° E 04:08:49 10° NNE
Cosmos 1151 Rocket 4.1 04:05:31 43° E 04:05:31 43° E 04:09:29 10° SSE
SL-8 R/B 4.4 04:07:03 51° ENE 04:07:03 51° ENE 04:10:46 10° ESE
NOSS 3-2 (C) 3.9 04:12:49 46° N 04:12:49 46° N 04:17:54 10° NNE
DNEPR-1 R/B 4.2 04:11:35 60° NE 04:11:51 61° NE 04:17:29 10° SE
Cosmos 1766 Rocket 4.2 04:15:35 10° S 04:19:48 54° E 04:24:02 10° NNE
BREEZE-M DEB (TANK) 3.2 04:21:03 68° SW 04:21:19 70° SSW 04:33:43 10° SE
Envisat 3.5 04:19:52 10° NNE 04:24:54 57° E 04:29:53 10° S
Cosmos 1328 Rocket 4.2 04:25:33 31° NNE 04:27:22 52° ENE 04:31:36 10° SSE
Cosmos 2263 4.1 04:24:34 31° SSW 04:27:27 88° ESE 04:33:14 10° NNE
Cosmos 2098 Rocket 3.0 04:32:19 68° S 04:32:53 90° NE 04:38:03 10° N
Cosmos 2369 Rocket 2.1 04:34:16 61° WNW 04:34:22 61° WNW 04:39:55 10° NNE
Cosmos 2344 4.1 04:34:44 35° NW 04:35:23 36° NW 04:42:43 10° NNE
SL-19 R/B 4.1 04:32:47 10° SSE 04:38:22 80° WSW 04:41:27 28° NNW
Cosmos 2142 Rocket 4.5 04:32:14 10° N 04:38:38 87° E 04:45:02 10° S
USA 238 DEB 4.1 04:39:33 38° NW 04:39:47 38° NW 04:46:11 10° NNE
USA 238 4.1 04:39:38 38° NW 04:39:53 38° NW 04:46:18 10° NNE
Cosmos 1656 Rocket 3.4 04:37:56 37° SW 04:40:05 74° WNW 04:45:34 10° NNE
COSMO-SKYMED 1 2.6 04:36:37 10° SSE 04:40:55 75° ENE 04:42:52 32° N
Cosmos 2279 Rocket 3.9 04:36:47 10° N 04:43:00 89° E 04:49:12 10° S
USA 215 3.6 04:36:57 10° ESE 04:43:19 58° NNE 04:46:50 28° NW
H-2A R/B 4.0 04:41:13 10° NNE 04:46:53 28° SSW 04:48:44 10° SSW
BREEZE-M DEB (TANK) 4.4 04:28:04 10° SW 04:44:59 60° SSE 04:49:14 10° ENE
Meteor 1-31 Rocket 3.1 04:41:39 10° NNE 04:45:33 66° E 04:49:26 10° S
Helios 1B 4.4 04:44:19 10° SSE 04:48:39 86° W 04:50:21 37° NNW
DELTA 2 R/B (1) 4.1 04:46:42 34° SW 04:48:47 53° S 04:54:09 10° E
Cosmos 1408 Rocket 4.2 04:48:05 10° S 04:52:16 56° E 04:56:30 10° NNE
Cosmos 1943 Rocket 3.7 04:54:24 19° NNW 04:54:24 19° NNW 04:56:55 10° N
CZ-2C R/B 2.5 04:46:59 10° SSE 04:52:29 83° WSW 04:57:37 11° NNW
CBERS 1 LM4 rocket 4.4 04:48:52 10° NNE 04:53:47 85° ESE 04:58:52 10° SSW
CZ-4B R/B 4.1 04:50:07 10° NNE 04:54:36 88° E 04:59:05 10° SSW
Cosmos 1354 Rocket 3.9 04:53:13 10° SSW 04:58:30 86° WNW 05:03:51 10° NNE
Cosmos 1634 Rocket 4.3 04:58:14 21° NNW 05:01:59 42° W 05:07:46 10° SSW
Meteor 2-15 4.4 04:58:12 10° N 05:04:18 87° E 05:10:21 10° S
Landsat 5 3.5 05:04:19 10° S 05:08:48 74° WSW 05:12:32 15° NNW
Cosmos 1515 Rocket 3.5 05:07:00 10° N 05:11:22 85° E 05:15:42 10° S
SJ 16-02 1.9 05:07:15 10° S 05:11:33 61° ESE 05:15:53 10° NNE
ADEOS 3.7 05:08:41 10° NNE 05:13:56 80° ESE 05:19:09 10° SSW
Meteor 2-19 Rocket 4.4 05:12:09 10° S 05:18:13 89° W 05:24:18 10° N
BREEZE-M DEB (TANK) 3.7 05:16:52 29° NW 05:18:13 43° N 05:25:45 10° E
CZ-4C R/B 2.7 05:21:51 10° S 05:24:56 56° W 05:26:28 26° NNW
NOAA 11 4.2 05:20:01 10° NNE 05:25:31 90° WNW 05:31:01 10° SSW
COSMOS 2487 3.6 05:23:52 10° N 05:27:03 40° ENE 05:30:13 10° SE
SKYMED 2 4.2 05:25:11 10° SSW 05:29:06 33° W 05:31:28 20° NW
Cosmos 1500 Rocket 3.7 05:25:19 10° S 05:29:46 82° E 05:34:16 10° N
CZ-2C R/B 3.0 05:28:09 10° NNE 05:33:05 83° ESE 05:38:14 10° SSW
CENTAUR R/B 3.9 05:31:36 17° NW 05:34:22 22° NNW 05:40:01 10° NNE
SMAP 4.2 05:31:21 10° NNE 05:35:52 48° E 05:40:21 10° S
Sich 1 4.4 05:31:58 10° SSE 05:36:00 42° E 05:40:02 10° NNE
ATLAS 5 CENTAUR R/B 1.2 05:35:55 10° SW 05:39:42 71° NW 05:43:59 10° NNE
CZ-4B R/B 2.5 05:37:22 10° NNE 05:40:56 86° WNW 05:44:33 10° SSW
H-2A R/B 4.2 05:37:02 10° NE 05:41:15 28° E 05:45:29 10° SSE
Cosmos 1805 Rocket 4.0 05:37:37 10° S 05:41:57 64° E 05:46:17 10° NNE
Meteor 1-27 Rocket 3.7 05:36:47 10° NNW 05:42:24 66° W 05:48:06 10° S
Cosmos 1151 Rocket 4.5 05:42:26 17° W 05:42:29 17° W 05:45:21 10° SW
H-2A R/B 2.2 05:38:34 10° SSE 05:42:50 78° ENE 05:47:14 10° N
Meteor PRIRODA 3.5 05:42:12 10° N 05:45:48 64° WNW 05:49:22 10° SSW
Cosmos 1777 Rocket 4.0 05:40:54 10° SSW 05:46:02 60° WNW 05:51:15 10° NNE
SL-8 R/B 4.4 05:45:02 16° W 05:48:24 41° SW 05:52:52 10° SSE
FAST Rocket 4.0 05:46:14 10° SSW 05:48:48 61° W 05:51:57 10° N
USA 32 4.0 05:44:28 10° N 05:49:45 88° W 05:55:00 10° S
Cosmos 773 Rocket 4.4 05:45:09 10° NNW 05:50:04 43° WSW 05:54:55 10° S
Lacrosse 4 Rocket 4.0 05:49:22 10° N 05:51:51 14° NE 05:54:20 10° ENE
Cosmos 1340 Rocket 2.9 05:50:27 10° SSW 05:54:18 52° WNW 05:58:14 10° N
Cosmos 1515 3.6 05:50:51 10° NNW 05:54:39 77° W 05:58:26 10° S
SL-27 R/B 3.5 05:54:53 13° NW 05:57:22 27° WSW 06:00:23 10° SSW
Cosmos 2026 Rocket 4.2 05:51:22 10° S 05:57:42 82° E 06:04:00 10° N
Okean O Rocket 4.5 05:55:41 10° NE 05:59:05 21° E 06:02:27 10° SE
Cosmos 2195 Rocket 4.4 05:55:36 10° S 06:01:43 80° W 06:07:52 10° N
NOSS 2 (A) 4.5 05:59:54 14° NW 06:01:58 46° WSW 06:04:18 10° SSE
DMSP B5D2-2 4.3 05:57:16 10° S 06:02:17 48° W 06:07:20 10° NNW
ATLAS 3B R/B 2.6 05:56:36 10° SW 06:03:07 73° NW 06:09:59 10° NE
Envisat 4.2 05:59:52 10° NNW 06:03:28 20° WNW 06:07:03 10° WSW
NOAA 6 4.2 05:59:31 10° NNE 06:04:40 83° ESE 06:09:47 10° SSW
Meteor 1-25 Rocket 4.2 06:03:37 10° SSW 06:09:13 72° WNW 06:14:48 10° N
Cosmos 158 Rocket 4.1 06:06:23 10° NNW 06:11:28 63° WSW 06:16:39 10° S
Cosmos 1809 Rocket 4.4 06:06:01 10° SSW 06:12:11 75° W 06:18:21 10° N
Cosmos 1666 3.8 06:09:21 10° S 06:13:00 49° E 06:16:40 10° NNE
PSLV R/B 4.2 06:08:59 10° SSE 06:13:01 73° ENE 06:17:07 10° N
Cosmos 1939 Rocket 3.0 06:10:57 10° N 06:14:44 48° WNW 06:18:27 10° SSW
Cosmos 2297 Rocket 2.8 06:10:07 10° NNW 06:15:43 58° ENE 06:21:17 10° SE
Cosmos 1174 4.3 06:14:18 10° WSW 06:16:46 23° NW 06:19:23 10° N
EO 1 Delta rocket 4.3 06:12:37 10° N 06:18:57 77° WNW 06:24:00 10° SSW
Cosmos 2369 Rocket 3.9 06:17:20 10° WNW 06:19:37 12° NW 06:21:54 10° NNW
Cosmos 1633 Rocket 3.6 06:19:40 10° S 06:23:57 63° E 06:28:14 10° NNE
CZ-4B R/B 1.4 06:20:46 10° S 06:24:03 62° WSW 06:27:18 10° NNW
Cosmos 1607 4.0 06:18:39 10° NW 06:24:55 81° WSW 06:31:02 10° SSE
USA 215 3.7 06:20:08 10° SSE 06:26:24 49° SW 06:32:42 10° WNW
